Regional Weather Roundup
Issued by NWS

Home | Current Version | Previous Version | Graphics & Text | Print | Product List | Glossary On
Versions: 1 2 3 4 5 6 7 8 9 10 11 12 13 14 15 16 17 18 19 20 21 22 23 24 25 26 27 28 29 30 31 32 33 34 35 36 37 38 39 40 41 42 43 44 45 46 47 48 49 50
000
ASUS43 KLOT 260000
RWRIL

ILLINOIS REGIONAL WEATHER ROUNDUP
NATIONAL WEATHER SERVICE CHICAGO/ROMEOVILLE IL
600 PM CST SUN JAN 25 2015

NOTE: "FAIR" INDICATES FEW OR NO CLOUDS BELOW 12,000 FEET WITH NO
SIGNIFICANT WEATHER AND/OR OBSTRUCTIONS TO VISIBILITY.

* THESE STATIONS ARE NOT UNDER NWS QUALITY CONTROL. THEY ALSO MAY NOT
  REPORT WEATHER SUCH AS PRECIPITATION OR FOG.

ILZ001-002-007-009-015-016-024-260100-
NORTHWEST ILLINOIS

CITY           SKY/WX    TMP DP  RH WIND       PRES   REMARKS
MOLINE         PTCLDY    27  17  66 N15       30.00R WCI  15
6HR MIN TEMP:  27; 6HR MAX TEMP:  30; 6HR PCP: TRACE;

STERLING*      PTCLDY    25  12  58 NE9       29.99R WCI  15
$$

ILZ003-004-008-010-011-017-018-260100-
NORTH CENTRAL ILLINOIS

CITY           SKY/WX    TMP DP  RH WIND       PRES   REMARKS
ROCKFORD       PTCLDY    24  12  60 NE17      30.00R WCI  11
6HR MIN TEMP:  24; 6HR MAX TEMP:  29; 6HR PCP: TRACE;

$$

ILZ005-006-012>014-019>023-260100-
NORTHEAST ILLINOIS

CITY           SKY/WX    TMP DP  RH WIND       PRES   REMARKS
CHICAGO-OHARE  CLOUDY    26  17  68 N16       29.94R WCI  14
6HR MIN TEMP:  26; 6HR MAX TEMP:  30; 6HR PCP:  0.01;

CHICAGO-MIDWAY FLURRIES  29  20  69 N18G26    29.94R WCI  16
6HR MIN TEMP:  29; 6HR MAX TEMP:  33; 6HR PCP: TRACE;

AURORA         CLOUDY    26  17  68 NE20      29.95R WCI  12
6HR MIN TEMP:  26; 6HR MAX TEMP:  32; 6HR PCP: TRACE;

WAUKEGAN       PTCLDY    24  14  65 N13       29.97R WCI  12
6HR MIN TEMP:  24; 6HR MAX TEMP:  28;

DUPAGE AIRPORT CLOUDY    25  17  72 NE16G25   29.93R WCI  12
6HR MIN TEMP:  25; 6HR MAX TEMP:  30; 6HR PCP: TRACE;

WHEELING       MOCLDY    26  16  65 N10       29.98R WCI  16
6HR MIN TEMP:  26; 6HR MAX TEMP:  29; 6HR PCP: TRACE;

NORTHERLY ISL    N/A     28  20  71 NE18        N/A  WCI  15
$$

LMZ740>746-260100-
SOUTHERN LAKE MICHIGAN

STATION/POSITION SKY/WX   TEMP    WIND        PRES    VSBY  WAVE
                          AIR SEA DIR/SP/G                  HT/PER
                          (F)     (DEG/KT/KT) (MB)    (MI)  (FT/S)
WAUKEGAN HARBOR            27      20/ 24/ 30   N/A
HARRISON CRIB              27      30/ 23/ 27   N/A
BURNHAM HARBOR             28      30/ 15/ 23   N/A
CALUMET HARBOR             27      10/ 18/ 22   N/A
MICHIGAN CITY              25      20/ 22/ 23   N/A
$$

ILZ025>027-034>036-040-047-049-050-058-095>099-260100-
WEST-CENTRAL ILLINOIS

CITY           SKY/WX    TMP DP  RH WIND       PRES   REMARKS
QUINCY         CLOUDY    31  27  85 N16       29.94R WCI  20
$$

ILZ028>032-037-038-041>044-048-051>054-059>061-260100-
CENTRAL ILLINOIS

CITY           SKY/WX    TMP DP  RH WIND       PRES   REMARKS
BLOOMINGTON    FLURRIES  30  28  93 NE30G37   29.86R WCI  15
DECATUR        CLOUDY    33  32  96 N17G28    29.82R WCI  22
PEORIA         CLOUDY    30  22  72 NE12G21   29.93R WCI  20
6HR MIN TEMP:  30; 6HR MAX TEMP:  36; 6HR PCP:  0.04;

SPRINGFIELD    CLOUDY    32  28  85 N24G31    29.87R WCI  19
6HR MIN TEMP:  32; 6HR MAX TEMP:  39; 6HR PCP: TRACE;

TAYLORVILLE    NOT AVBL
$$

ILZ033-039-045-046-055>057-062-063-260100-
EAST-CENTRAL ILLINOIS

CITY           SKY/WX    TMP DP  RH WIND       PRES   REMARKS
CHAMPAIGN      FLURRIES  32  29  88 NE20G29   29.80R WCI  20
MATTOON        MIX PCPN  33  31  92 N20G29    29.75R FOG     WCI  21
$$

ILZ079-100>102-260100-
SOUTHWEST ILLINOIS

CITY           SKY/WX    TMP DP  RH WIND       PRES   REMARKS
ALTON          CLOUDY    36  34  93 N21       29.83R WCI  24
BELLEVILLE     CLOUDY    37  37  99 N21G29    29.80R WCI  26
CAHOKIA*       CLOUDY    38  35  89 N18       29.83R WCI  28
$$

ILZ064>066-069>071-074>076-080>082-084>086-088>090-092>094-260100-
SOUTH-CENTRAL ILLINOIS

CITY           SKY/WX    TMP DP  RH WIND       PRES   REMARKS
CARBONDALE     LGT RAIN  43  41  93 N17G25    29.71R
6HR MIN TEMP:  43; 6HR MAX TEMP:  46; 6HR PCP:  0.28;

MARION         LGT RAIN  43  41  93 N12       29.71R
MT. VERNON     CLOUDY    41  36  81 N7        29.71R
$$

ILZ067-068-072-073-078-083-087-091-260100-
SOUTHEAST ILLINOIS

CITY           SKY/WX    TMP DP  RH WIND       PRES   REMARKS
LAWRENCEVILLE  LGT RAIN  40  39  97 N8        29.68R FOG
$$

ABBREVIATIONS USED IN REMARKS
   TC - TEMPERATURE IN CELSIUS
  WCI - WIND CHILL INDEX
   HX - HEAT INDEX
  VSB - VISIBILITY
$$




USA.gov is the U.S. government's official web portal to all federal, state and local government web resources and services.